Printer-friendly version

IAU Minor Planet Center

Minor Planet Center

MPEC 2004-R32 : 2000 QJ130

The following Minor Planet Electronic Circular may be linked-to from your own Web pages, but must not otherwise be redistributed electronically.


Read MPEC 2004-R31 Read MPEC 2004-R33


M.P.E.C. 2004-R32                                Issued 2004 Sept. 8, 12:53 UT

     The Minor Planet Electronic Circulars contain information on unusual
         minor planets and routine data on comets.  They are published
   on behalf of Commission 20 of the International Astronomical Union by the
          Minor Planet Center, Smithsonian Astrophysical Observatory,
                          Cambridge, MA 02138, U.S.A.

                  Supported in part by the Brinson Foundation
             Prepared using the Tamkin Foundation Computer Network

                              MPC@CFA.HARVARD.EDU
          URL http://cfa-www.harvard.edu/iau/mpc.html  ISSN 1523-6714

                                  2000 QJ130

                           Revision to MPEC 2000-R08

Additional Observations:
     K00QD0J 5C2004 09 07.50243 03 37 16.44 +11 20 56.8          20.5 R ER032673
     K00QD0J 5C2004 09 07.50962 03 37 17.41 +11 20 53.6                 ER032673
     K00QD0J 5C2004 09 07.51678 03 37 18.38 +11 20 49.6                 ER032673
     K00QD0J 5C2004 09 07.51968 03 37 18.82 +11 20 48.1                 ER032673
     K00QD0J 5C2004 09 08.47442 03 39 39.33 +11 12 38.8          20.5 R ER032673
     K00QD0J 5C2004 09 08.48032 03 39 40.16 +11 12 36.0                 ER032673
     K00QD0J 5C2004 09 08.48877 03 39 41.21 +11 12 31.9                 ER032673
     K00QD0J 5C2004 09 08.49086 03 39 41.70 +11 12 30.4                 ER032673

Observer details:
673 Table Mountain Observatory, Wrightwood.  Observer J. Young.  0.6-m
    reflector + CCD.

First and last observations above in comparison with prediction:
Residuals in seconds of arc (or two decimals in degrees), reference and Delta-T
040907 673 0.09- 0.02-    040908 673 0.09- 0.02-    MPO 10967   +0.075 day

Orbital elements:
2000 QJ130
Epoch 2004 July 14.0 TT = JDT 2453200.5                 MPC
M 350.96657              (2000.0)            P               Q
n   0.25167764     Peri.  187.53752     +0.98450200     +0.17093758
a   2.4845036      Node   162.47245     -0.15334719     +0.94751490
e   0.4964117      Incl.    7.47776     -0.08509088     +0.27017747
P   3.92           H   19.4           G   0.15           U   1
Residuals in seconds of arc
000829 704  0.4+  0.2-    000901 106  0.0   0.9+    000904 704  0.0   0.3-
000829 704  0.1+  0.9+    000902 711  0.0   0.8-    000904 699 (2.6+  2.2-)
000829 704  0.2-  0.5-    000902 711 (0.7-  4.4+)   000904 704  0.3-  0.2+
000829 704  0.5+  0.8+    000902 711  0.1+  0.4-    000904 704  0.1-  0.3-
000831 704  0.5-  0.3-    000902 704  0.5+  0.3+    000904 699 (3.3+  2.1-)
000831 704  0.4+  0.6+    000902 704  0.2+  0.3+    000905 704  0.5-  0.5-
000831 704  0.2-  0.1+    000902 704  0.0   0.2+    000905 704  0.2+  0.7+
000831 704  0.1-  0.5+    000902 704  0.2+  0.2+    000905 704  0.6+  0.3+
000831 704  0.4+  0.0     000902 704  0.2-  0.3-    000905 704  0.4+  0.1-
000831 557  0.7+  0.3+    000902 704  0.6-  0.0     000905 595  0.5+  0.1-
000831 557  0.1-  1.1+    000902 704  0.7-  0.9+    000905 595  0.2+  0.2-
000831 557  0.1-  0.2-    000902 704  0.6-  0.5+    000905 595  0.8-  0.1-
000901 704  0.6+  1.1+    000902 704  0.9-  0.3+    000905 595  0.5-  0.2-
000901 704  0.5+  0.4-    000902 704  0.7+  0.0     000906 808  1.7-  0.2+
000901 704  0.1+  0.3+    000902 704  0.2-  0.0     000906 808  0.8+  1.5-
000901 704  0.2-  0.2-    000902 704  0.3+  0.0     000918 413  0.3-  0.4-
000901 704  0.3-  0.1-    000902 704  0.2+  0.5-    000918 413  0.3-  0.4-
000901 704  0.4+  0.7+    000902 704  0.1-  0.0     000918 413  0.2-  0.4-
000901 704  0.0   0.4+    000902 704  0.5-  0.3+    000919 608  0.4+  1.1-
000901 704  0.3+  0.0     000902 413  0.3+  0.3-    000919 608  0.7+  0.7-
000901 704  0.5+  0.7+    000902 413  0.1+  0.2-    000919 608  0.3+  0.5-
000901 704  0.3+  0.2-    000902 422  0.2+  0.3-    000919 413  0.3-  0.4-
000901 711  0.1-  0.3-    000902 422  0.3+  0.3-    000919 413  0.3-  0.4-
000901 704  0.3+  0.0     000902 422  0.2+  0.1-    000919 413  0.3-  0.4-
000901 711  0.1-  0.3-    000902 413  0.1+  0.2-    000920 360  0.6-  0.4-
000901 711  0.0   0.3-    000902 413  0.1+  0.2-    000920 360  0.3-  0.1-
000901 704  0.3+  0.4+    000902 413  0.1+  0.3-    000920 360  0.1-  0.4-
000901 704  0.4+  0.2+    000903 704  0.2-  0.8+    000925 808  0.8+  1.1+
000901 704  0.4+  0.3+    000903 704  0.5-  0.4+    000925 808  1.3+  0.1-
000901 704  0.2+  0.5-    000903 704  0.3+  0.6-    001001 704  0.3-  0.0
000901 046  0.9-  0.8-    000903 704  0.0   0.6-    001001 704  0.1+  0.5-
000901 046  0.5-  0.4+    000903 704  0.0   0.7+    001001 704  0.9-  0.2+
000901 046  0.8-  0.1+    000903 704  0.2+  0.7+    010123 568  0.0   0.0
000901 046  0.4-  0.2-    000903 704  0.3-  0.0     010123 568  0.2+  0.1+
000901 046  0.3-  1.2-    000903 704  0.3+  0.8+    010124 568  0.0   0.2+
000901 595  0.1-  1.0-    000903 704  0.0   0.1-    010124 568  0.3-  0.0
000901 118 (2.3+  1.3+)   000903 704  0.7+  0.1+    040907 673  0.8+  0.3-
000901 118  0.9+  0.6+    000903 704  0.6-  0.9+    040907 673  0.0   0.1+
000901 595  0.4-  0.3-    000903 704  0.4+  0.0     040907 673  0.7-  0.3-
000901 595  0.0   0.2-    000903 704  0.4-  0.4+    040907 673  0.3-  0.3-
000901 587  0.3-  0.4+    000903 704  0.4+  0.2+    040908 673  0.2+  0.4-
000901 587  0.1-  0.8-    000903 704  0.1-  0.2+    040908 673  0.4+  0.1-
000901 557  0.3-  0.0     000904 699 (2.7+  1.9-)   040908 673  1.5-  0.1+
000901 557  0.0   0.1-    000904 699 (3.3+  2.5-)   040908 673  1.5+  0.3-
000901 106  0.2+  0.7+    000904 704  0.2-  0.4+
000901 106  0.2-  0.0     000904 704  0.3-  0.4+

Ephemeris:
2000 QJ130               a,e,i = 2.48, 0.50, 7                   q = 1.2512
Date    TT    R. A. (2000) Decl.     Delta      r     Elong.  Phase     V
2004 09 02    03 22.79   +12 02.8    0.503    1.260   108.2    49.5    20.3
2004 09 12    03 47.80   +10 40.6    0.495    1.278   112.1    46.9    20.2
2004 09 22    04 06.65   +08 55.2    0.491    1.304   117.3    43.2    20.1
2004 10 02    04 18.87   +06 57.9    0.491    1.337   123.8    38.5    20.0
2004 10 12    04 24.31   +05 00.2    0.495    1.377   131.6    32.8    19.9
2004 10 22    04 23.33   +03 14.9    0.506    1.423   140.6    26.4    19.9
2004 11 01    04 17.21   +01 55.6    0.529    1.473   149.8    19.8    19.9
2004 11 11    04 07.92   +01 12.0    0.565    1.527   157.7    14.2    19.9
2004 11 21    03 57.87   +01 08.8    0.617    1.584   161.0    11.7    20.1
2004 12 01    03 49.32   +01 43.1    0.688    1.643   157.7    13.2    20.4
2004 12 11    03 43.64   +02 46.2    0.777    1.704   150.4    16.6    20.9
2004 12 21    03 41.45   +04 08.9    0.883    1.766   142.0    20.1    21.4
2004 12 31    03 42.73   +05 42.2    1.005    1.828   133.6    22.9    21.8

Timothy B. Spahr             (C) Copyright 2004 MPC           M.P.E.C. 2004-R32

Read MPEC 2004-R31 Read MPEC 2004-R33


Our Web policy. Index to the CBAT/MPC/ICQ pages.


Valid HTML 4.01!